QPF
0.00 0.00 0.00 0.00 0.00 0.00 0.00 0.00 0.00 0.00 0.00 0.00 0.00 0.00 0.00 0.00 0.00 0.00 0.00 0.00 0.00 0.00 0.00 0.00 0.01 0.00 0.00 0.00 0.01 0.02 0.01 0.00 0.00 0.00 0.00 0.00 0.00 0.00 0.00 0.00 0.00 0.00 0.00 0.00 0.00 0.00 0.00 0.00 0.00
0.00 0.00 0.00 0.00 0.00 0.00 0.00 0.00 0.00 0.00 0.00 0.00 0.00 0.00 0.00 0.00 0.00 0.00 0.00 0.00 0.00 0.00 0.00 0.00 0.00 0.00 0.00 0.00 0.00 0.02 0.05 0.00 0.00 0.00 0.00 0.00 0.00 0.00 0.00 0.00 0.00 0.00 0.00 0.00 0.00 0.00 0.00 0.00 0.00
0.00 0.00 0.00 0.00 0.00 0.00 0.00 0.00 0.00 0.00 0.00 0.00 0.00 0.00 0.00 0.00 0.00 0.00 0.00 0.00 0.00 0.00 0.00 0.00 0.00 0.00 0.00 0.01 0.00 0.05 0.11 0.00 0.00 0.00 0.00 0.00 0.00 0.00 0.00 0.00 0.00 0.00 0.00 0.00 0.00 0.00 0.00 0.00 0.00
0.00 0.00 0.00 0.00 0.00 0.00 0.00 0.00 0.00 0.00 0.00 0.00 0.00 0.00 0.00 0.00 0.00 0.00 0.00 0.00 0.00 0.00 0.00 0.00 0.00 0.00 0.01 0.00 0.00 0.02 0.04 0.00 0.00 0.00 0.00 0.00 0.00 0.00 0.00 0.00 0.00 0.00 0.00 0.00 0.00 0.00 0.00 0.00 0.00
0.00 0.00 0.00 0.00 0.00 0.00 0.00 0.00 0.00 0.00 0.00 0.00 0.00 0.00 0.00 0.00 0.00 0.00 0.00 0.00 0.00 0.00 0.00 0.00 0.00 0.00 0.01 0.02 0.02 0.06 0.02 0.00 0.00 0.00 0.00 0.00 0.00 0.00 0.00 0.00 0.00 0.00 0.00 0.00 0.00 0.00 0.00 0.00 0.00
0.00 0.00 0.00 0.00 0.00 0.00 0.00 0.00 0.00 0.00 0.00 0.00 0.00 0.00 0.00 0.00 0.00 0.00 0.00 0.00 0.00 0.00 0.00 0.00 0.00 0.00 0.00 0.01 0.02 0.03 0.01 0.00 0.00 0.00 0.00 0.00 0.00 0.00 0.00 0.00 0.00 0.00 0.00 0.00 0.00 0.00 0.00 0.00 0.00
0.00 0.00 0.00 0.00 0.00 0.00 0.00 0.00 0.00 0.00 0.00 0.00 0.00 0.00 0.00 0.00 0.00 0.00 0.00 0.00 0.00 0.00 0.00 0.00 0.01 0.00 0.00 0.00 0.00 0.00 0.00 0.00 0.00 0.00 0.00 0.00 0.00 0.00 0.00 0.00 0.00 0.00 0.00 0.00 0.00 0.00 0.00 0.00 0.00
0.00 0.00 0.00 0.00 0.00 0.00 0.00 0.00 0.00 0.00 0.00 0.00 0.00 0.00 0.00 0.00 0.00 0.00 0.00 0.00 0.00 0.00 0.00 0.00 0.00 0.01 0.00 0.00 0.00 0.00 0.00 0.00 0.00 0.00 0.00 0.00 0.00 0.00 0.00 0.00 0.00 0.00 0.00 0.00 0.00 0.00 0.00 0.00 0.00
0.00 0.00 0.00 0.00 0.00 0.00 0.00 0.00 0.00 0.00 0.00 0.00 0.00 0.00 0.00 0.00 0.00 0.00 0.00 0.00 0.00 0.00 0.00 0.00 0.00 0.00 0.00 0.00 0.00 0.00 0.00 0.00 0.00 0.00 0.00 0.00 0.00 0.00 0.00 0.00 0.00 0.00 0.00 0.00 0.00 0.00 0.00 0.00 0.00
0.00 0.00 0.00 0.00 0.00 0.00 0.00 0.00 0.00 0.00 0.00 0.00 0.00 0.00 0.00 0.00 0.00 0.00 0.00 0.00 0.00 0.00 0.00 0.00 0.00 0.00 0.00 0.00 0.00 0.00 0.00 0.00 0.00 0.00 0.00 0.00 0.00 0.00 0.00 0.00 0.00 0.00 0.00 0.00 0.00 0.00 0.00 0.00 0.00
0.00 0.00 0.00 0.00 0.00 0.00 0.00 0.00 0.00 0.00 0.00 0.00 0.00 0.00 0.00 0.00 0.00 0.00 0.00 0.00 0.00 0.00 0.00 0.00 0.00 0.00 0.00 0.00 0.00 0.00 0.00 0.00 0.00 0.00 0.00 0.00 0.00 0.00 0.00 0.00 0.00 0.00 0.00 0.00 0.00 0.00 0.00 0.00 0.00
0.00 0.00 0.00 0.00 0.00 0.00 0.00 0.00 0.00 0.00 0.00 0.00 0.00 0.02 0.01 0.00 0.00 0.00 0.00 0.00 0.00 0.00 0.00 0.00 0.00 0.00 0.00 0.00 0.00 0.00 0.00 0.00 0.00 0.00 0.00 0.00 0.00 0.00 0.00 0.00 0.00 0.00 0.00 0.00 0.00 0.00 0.00 0.00 0.00
0.01 0.00 0.00 0.00 0.00 0.00 0.00 0.00 0.00 0.00 0.00 0.00 0.00 0.00 0.00 0.00 0.00 0.00 0.00 0.00 0.00 0.00 0.00 0.00 0.00 0.00 0.00 0.00 0.00 0.00 0.00 0.00 0.00 0.00 0.00 0.00 0.00 0.00 0.00 0.00 0.00 0.00 0.00 0.00 0.00 0.00 0.00 0.00 0.00
0.00 0.01 0.00 0.00 0.00 0.00 0.00 0.00 0.00 0.00 0.00 0.00 0.00 0.00 0.00 0.00 0.00 0.00 0.00 0.00 0.00 0.00 0.00 0.00 0.00 0.00 0.00 0.00 0.00 0.00 0.00 0.00 0.00 0.00 0.00 0.00 0.00 0.00 0.00 0.00 0.00 0.00 0.00 0.00 0.00 0.00 0.00 0.00 0.00
0.00 0.00 0.00 0.00 0.00 0.00 0.00 0.00 0.00 0.00 0.00 0.00 0.00 0.00 0.00 0.01 0.00 0.00 0.00 0.00 0.00 0.00 0.00 0.00 0.00 0.00 0.00 0.00 0.00 0.00 0.00 0.00 0.00 0.00 0.00 0.00 0.00 0.00 0.00 0.00 0.00 0.00 0.00 0.00 0.00 0.00 0.00 0.00 0.00
0.00 0.01 0.00 0.00 0.00 0.00 0.00 0.00 0.00 0.00 0.00 0.00 0.00 0.00 0.00 0.01 0.02 0.00 0.00 0.00 0.00 0.00 0.00 0.00 0.00 0.00 0.00 0.00 0.00 0.00 0.00 0.00 0.00 0.00 0.00 0.00 0.00 0.00 0.00 0.00 0.00 0.00 0.00 0.00 0.00 0.00 0.00 0.00 0.00
0.00 0.00 0.00 0.00 0.00 0.00 0.00 0.00 0.00 0.00 0.00 0.00 0.00 0.00 0.00 0.00 0.01 0.01 0.00 0.00 0.00 0.00 0.00 0.00 0.00 0.00 0.00 0.00 0.00 0.00 0.00 0.00 0.00 0.00 0.00 0.00 0.00 0.00 0.00 0.00 0.00 0.00 0.00 0.00 0.00 0.00 0.00 0.00 0.00
0.00 0.00 0.00 0.01 0.00 0.01 0.00 0.00 0.00 0.00 0.00 0.00 0.00 0.00 0.00 0.00 0.01 0.01 0.00 0.00 0.00 0.00 0.00 0.00 0.00 0.00 0.00 0.00 0.00 0.00 0.00 0.00 0.00 0.00 0.00 0.00 0.00 0.00 0.00 0.00 0.00 0.00 0.00 0.00 0.00 0.00 0.00 0.00 0.00
0.01 0.01 0.00 0.00 0.00 0.00 0.00 0.01 0.01 0.00 0.01 0.00 0.00 0.00 0.00 0.01 0.06 0.02 0.00 0.00 0.00 0.00 0.00 0.00 0.00 0.00 0.00 0.00 0.00 0.00 0.00 0.00 0.00 0.00 0.00 0.00 0.00 0.00 0.00 0.00 0.00 0.00 0.00 0.00 0.00 0.00 0.00 0.00 0.00
0.00 0.01 0.01 0.01 0.00 0.00 0.00 0.00 0.00 0.00 0.00 0.00 0.00 0.00 0.00 0.02 0.01 0.01 0.00 0.00 0.00 0.00 0.00 0.00 0.00 0.00 0.00 0.00 0.00 0.00 0.00 0.00 0.00 0.00 0.00 0.00 0.00 0.00 0.00 0.00 0.00 0.00 0.00 0.00 0.00 0.00 0.00 0.00 0.00
0.00 0.00 0.00 0.01 0.01 0.00 0.01 0.00 0.00 0.00 0.00 0.00 0.00 0.00 0.01 0.02 0.03 0.02 0.00 0.00 0.00 0.00 0.00 0.00 0.00 0.00 0.00 0.00 0.00 0.00 0.00 0.00 0.00 0.00 0.00 0.00 0.00 0.00 0.00 0.00 0.00 0.00 0.00 0.00 0.00 0.00 0.00 0.00 0.00
0.00 0.00 0.00 0.01 0.03 0.01 0.01 0.01 0.00 0.00 0.00 0.00 0.00 0.00 0.00 0.00 0.01 0.02 0.00 0.00 0.00 0.00 0.00 0.00 0.00 0.00 0.00 0.00 0.00 0.00 0.00 0.00 0.00 0.00 0.00 0.00 0.00 0.00 0.00 0.00 0.00 0.00 0.00 0.00 0.00 0.00 0.00 0.00 0.00
0.00 0.00 0.00 0.00 0.01 0.01 0.01 0.02 0.00 0.00 0.00 0.00 0.00 0.00 0.00 0.00 0.01 0.02 0.01 0.00 0.00 0.00 0.00 0.00 0.00 0.00 0.00 0.00 0.00 0.00 0.00 0.00 0.00 0.00 0.00 0.00 0.00 0.00 0.00 0.00 0.00 0.00 0.00 0.00 0.00 0.00 0.00 0.00 0.00
0.01 0.01 0.01 0.02 0.02 0.01 0.00 0.01 0.00 0.00 0.00 0.00 0.00 0.00 0.00 0.00 0.00 0.01 0.01 0.00 0.00 0.00 0.00 0.00 0.00 0.00 0.00 0.00 0.00 0.00 0.00 0.00 0.00 0.00 0.00 0.00 0.00 0.00 0.00 0.00 0.00 0.00 0.00 0.00 0.00 0.00 0.00 0.00 0.00
0.01 0.01 0.02 0.02 0.02 0.01 0.01 0.01 0.00 0.00 0.00 0.00 0.00 0.00 0.00 0.01 0.00 0.00 0.00 0.00 0.00 0.00 0.00 0.00 0.00 0.00 0.00 0.00 0.00 0.00 0.00 0.00 0.00 0.00 0.00 0.00 0.00 0.00 0.00 0.00 0.00 0.00 0.00 0.00 0.00 0.00 0.00 0.00 0.00
0.01 0.02 0.02 0.02 0.02 0.02 0.02 0.01 0.00 0.00 0.00 0.00 0.00 0.00 0.00 0.00 0.00 0.00 0.00 0.00 0.00 0.00 0.00 0.00 0.00 0.00 0.00 0.00 0.00 0.00 0.00 0.00 0.00 0.00 0.00 0.00 0.00 0.00 0.00 0.00 0.00 0.00 0.00 0.00 0.00 0.00 0.00 0.00 0.00
0.00 0.00 0.00 0.01 0.02 0.02 0.02 0.01 0.01 0.00 0.00 0.00 0.00 0.00 0.00 0.00 0.00 0.00 0.00 0.00 0.00 0.00 0.00 0.00 0.00 0.00 0.00 0.00 0.00 0.00 0.00 0.00 0.00 0.00 0.00 0.00 0.00 0.00 0.00 0.00 0.00 0.00 0.00 0.00 0.00 0.00 0.00 0.00 0.00
0.00 0.00 0.01 0.01 0.03 0.01 0.00 0.00 0.00 0.00 0.00 0.00 0.00 0.00 0.00 0.00 0.00 0.00 0.00 0.00 0.00 0.00 0.00 0.00 0.00 0.00 0.00 0.00 0.00 0.00 0.00 0.00 0.00 0.00 0.00 0.00 0.00 0.00 0.00 0.00 0.00 0.00 0.00 0.00 0.00 0.00 0.00 0.00 0.00
0.00 0.00 0.00 0.01 0.01 0.01 0.01 0.00 0.00 0.00 0.00 0.00 0.00 0.00 0.00 0.00 0.00 0.00 0.00 0.00 0.00 0.00 0.00 0.00 0.00 0.00 0.00 0.00 0.00 0.00 0.00 0.00 0.00 0.00 0.00 0.00 0.00 0.00 0.00 0.00 0.00 0.00 0.00 0.00 0.00 0.00 0.00 0.00 0.00
0.00 0.00 0.00 0.01 0.01 0.01 0.00 0.00 0.00 0.00 0.00 0.00 0.00 0.00 0.00 0.00 0.00 0.00 0.00 0.00 0.00 0.00 0.00 0.00 0.00 0.00 0.00 0.00 0.00 0.00 0.00 0.00 0.00 0.00 0.00 0.00 0.00 0.00 0.00 0.00 0.00 0.00 0.00 0.00 0.00 0.00 0.00 0.00 0.00
MSLP
1015.16 1014.88 1014.76 1014.23 1013.48 1012.09 1010.67 1010.45 1010.36 1010.43 1010.97 1011.51 1011.91 1012.28 1012.44 1013.00 1013.35 1014.86 1015.89 1016.22 1016.18 1016.68 1017.17 1017.97 1018.43 1018.66 1018.94 1019.15 1019.44 1019.65 1019.85 1020.05 1020.32 1020.48 1020.58 1020.66 1020.70 1020.76 1020.81 1020.93 1020.90 1020.93 1020.89 1020.92 1020.91 1020.96 1021.03 1021.00 1020.93
1015.16 1014.68 1014.43 1013.66 1012.74 1011.37 1010.46 1010.59 1010.51 1010.49 1011.04 1011.92 1012.40 1012.62 1012.87 1013.13 1014.37 1015.34 1016.22 1016.52 1016.42 1016.83 1017.24 1017.60 1018.40 1018.63 1018.93 1019.19 1019.40 1019.68 1019.83 1020.11 1020.37 1020.53 1020.67 1020.82 1020.92 1021.01 1021.05 1021.07 1021.12 1021.08 1021.02 1021.02 1021.10 1021.20 1021.23 1021.24 1021.17
1015.10 1014.74 1013.96 1013.14 1012.29 1011.31 1010.73 1010.69 1010.52 1011.62 1011.98 1012.01 1012.32 1013.02 1013.05 1013.51 1014.73 1015.27 1015.94 1016.32 1016.52 1016.93 1017.22 1017.67 1018.34 1018.56 1018.80 1019.11 1019.41 1019.76 1019.98 1020.13 1020.42 1020.61 1020.73 1020.90 1021.01 1021.14 1021.26 1021.38 1021.38 1021.32 1021.35 1021.37 1021.42 1021.46 1021.45 1021.42 1021.36
1014.88 1014.31 1014.20 1013.29 1012.17 1011.83 1011.33 1011.00 1011.20 1011.89 1012.50 1012.53 1012.27 1012.58 1013.86 1014.42 1014.73 1015.37 1016.05 1016.33 1016.61 1016.95 1017.38 1018.07 1018.22 1018.37 1018.63 1019.00 1019.41 1019.72 1019.96 1020.20 1020.47 1020.65 1020.87 1021.06 1021.24 1021.42 1021.56 1021.70 1021.72 1021.71 1021.67 1021.65 1021.64 1021.66 1021.62 1021.56 1021.49
1014.97 1014.36 1013.48 1013.13 1012.46 1012.18 1011.72 1011.62 1011.62 1011.60 1011.78 1012.09 1012.58 1012.69 1013.67 1014.81 1015.15 1015.88 1016.07 1016.38 1017.05 1017.11 1017.44 1017.86 1018.13 1018.16 1018.51 1018.99 1019.37 1019.75 1020.02 1020.34 1020.64 1020.76 1020.95 1021.21 1021.41 1021.62 1021.74 1021.83 1021.88 1021.94 1021.90 1021.85 1021.84 1021.79 1021.72 1021.63 1021.52
1014.45 1014.51 1013.65 1012.87 1012.37 1012.34 1011.93 1011.61 1011.70 1011.57 1011.81 1012.28 1012.70 1012.86 1013.84 1014.96 1015.44 1016.20 1016.23 1016.64 1017.29 1017.18 1017.53 1017.96 1018.35 1018.37 1018.60 1019.04 1019.41 1019.80 1020.12 1020.45 1020.72 1020.96 1021.12 1021.31 1021.57 1021.74 1021.85 1021.93 1022.00 1022.06 1022.04 1021.99 1021.89 1021.83 1021.79 1021.66 1021.55
1014.45 1014.11 1013.37 1013.20 1012.73 1012.33 1011.88 1011.81 1011.61 1011.49 1011.56 1012.02 1012.41 1012.64 1014.12 1015.22 1015.86 1016.19 1016.44 1016.70 1017.42 1017.39 1017.63 1017.97 1018.27 1018.67 1018.89 1019.26 1019.67 1019.96 1020.18 1020.54 1020.80 1021.00 1021.25 1021.49 1021.75 1021.89 1022.02 1022.12 1022.12 1022.09 1022.06 1022.06 1022.01 1021.95 1021.86 1021.75 1021.67
1014.89 1014.14 1013.34 1012.89 1012.39 1012.07 1012.01 1012.14 1011.96 1011.69 1011.59 1012.60 1012.56 1012.45 1013.19 1014.44 1016.12 1016.29 1016.46 1016.86 1017.58 1017.76 1017.83 1017.96 1018.33 1018.60 1018.93 1019.33 1019.74 1020.11 1020.47 1020.68 1020.91 1021.17 1021.50 1021.72 1021.87 1022.08 1022.23 1022.30 1022.31 1022.25 1022.16 1022.11 1022.02 1021.95 1021.85 1021.78 1021.66
1015.25 1014.00 1012.57 1012.21 1012.15 1011.81 1012.18 1011.99 1012.23 1012.60 1012.43 1012.64 1012.87 1012.99 1013.65 1014.19 1016.05 1016.24 1016.37 1016.76 1017.54 1017.83 1017.92 1018.24 1018.42 1018.64 1018.84 1019.23 1019.93 1020.37 1020.69 1020.96 1021.30 1021.49 1021.77 1021.92 1021.60 1021.84 1022.00 1022.37 1022.37 1022.29 1022.25 1022.20 1022.11 1022.04 1021.94 1021.80 1021.72
1014.65 1013.37 1012.22 1012.22 1011.87 1011.67 1011.89 1012.07 1011.96 1012.24 1012.39 1012.72 1013.05 1013.77 1014.10 1014.99 1015.70 1015.82 1015.75 1016.09 1017.15 1017.48 1017.64 1018.09 1018.54 1018.79 1019.17 1019.47 1019.95 1020.10 1020.48 1020.69 1020.88 1021.27 1021.59 1021.45 1021.65 1021.72 1021.80 1022.27 1022.39 1022.33 1022.27 1022.16 1022.14 1022.04 1021.82 1021.50 1021.28
1014.30 1013.29 1012.86 1012.64 1012.23 1012.05 1011.92 1011.86 1011.94 1011.76 1011.77 1011.60 1012.11 1013.24 1014.09 1015.11 1015.53 1015.88 1015.67 1016.04 1016.68 1017.42 1017.80 1017.90 1018.43 1018.94 1019.19 1019.59 1019.82 1020.06 1020.34 1020.59 1020.93 1021.17 1021.35 1021.45 1021.56 1021.72 1021.66 1021.69 1021.77 1021.80 1022.13 1021.60 1021.76 1021.69 1021.77 1021.89 1021.71
1014.52 1014.03 1013.51 1013.02 1012.61 1012.46 1011.93 1011.81 1011.56 1011.41 1010.88 1011.44 1011.63 1012.38 1014.55 1014.81 1014.90 1015.11 1015.42 1015.93 1016.48 1017.05 1017.70 1017.88 1018.21 1018.81 1019.22 1019.57 1019.85 1020.06 1020.36 1020.60 1020.75 1021.05 1021.32 1021.35 1021.31 1021.47 1021.50 1021.44 1021.58 1021.63 1021.91 1021.87 1021.93 1022.05 1022.34 1022.27 1022.22
1014.66 1014.30 1013.73 1013.36 1012.81 1012.43 1012.16 1011.56 1011.40 1010.94 1010.83 1011.25 1011.85 1012.39 1013.49 1014.42 1014.73 1015.07 1015.45 1015.96 1016.44 1016.99 1017.46 1018.02 1018.04 1018.52 1019.13 1019.45 1019.61 1019.93 1020.17 1020.52 1020.62 1020.87 1021.14 1021.10 1021.17 1021.31 1021.37 1021.50 1021.71 1022.14 1022.45 1022.29 1022.23 1022.18 1022.38 1022.50 1022.52
1015.16 1014.76 1014.09 1013.36 1012.78 1012.45 1012.16 1011.29 1011.18 1010.74 1010.65 1011.08 1011.80 1012.06 1012.72 1013.59 1014.35 1014.78 1015.04 1015.33 1016.08 1016.62 1017.26 1017.80 1018.10 1018.29 1018.78 1019.20 1019.57 1019.80 1020.10 1020.38 1020.63 1020.77 1020.90 1021.10 1021.05 1021.31 1021.26 1021.61 1022.07 1022.47 1022.70 1022.86 1022.63 1022.52 1022.66 1022.64 1022.64
1016.16 1015.10 1013.92 1013.24 1013.20 1012.35 1012.19 1010.49 1009.80 1010.63 1010.45 1010.79 1011.33 1011.67 1012.37 1012.79 1013.93 1014.26 1014.24 1014.62 1015.29 1015.98 1016.89 1017.56 1018.11 1018.39 1018.70 1018.92 1019.40 1019.66 1020.04 1020.40 1020.61 1020.79 1021.11 1021.22 1021.44 1021.51 1021.98 1022.13 1022.75 1023.07 1023.09 1022.82 1022.70 1022.84 1022.81 1022.75 1023.06
1016.29 1015.12 1013.79 1012.77 1012.68 1012.33 1012.49 1008.35 1009.39 1010.01 1010.04 1010.00 1010.56 1011.30 1012.02 1012.36 1012.89 1013.87 1014.32 1014.52 1015.26 1015.66 1016.49 1017.37 1017.86 1018.24 1018.59 1018.90 1019.26 1019.53 1019.93 1020.29 1020.94 1021.22 1021.26 1021.52 1021.70 1022.08 1022.38 1022.73 1023.11 1023.29 1023.09 1022.99 1023.15 1023.08 1023.21 1023.24 1023.35
1016.23 1014.50 1013.39 1012.78 1012.48 1011.93 1011.39 1009.41 1009.61 1009.43 1009.67 1009.42 1009.66 1010.50 1011.28 1012.07 1012.79 1013.26 1013.77 1014.36 1014.80 1015.53 1016.02 1016.83 1017.40 1017.88 1018.50 1018.97 1019.20 1019.66 1020.43 1020.99 1021.50 1021.73 1021.74 1022.06 1022.23 1022.40 1022.53 1023.02 1023.32 1023.39 1023.35 1023.34 1023.35 1023.64 1023.72 1023.80 1024.21
1016.04 1015.26 1014.44 1013.50 1012.96 1012.39 1011.11 1009.64 1009.63 1009.35 1009.06 1008.88 1008.98 1009.76 1010.45 1011.28 1011.84 1012.70 1013.37 1014.25 1014.63 1015.43 1015.83 1016.37 1016.76 1017.52 1018.31 1018.85 1019.75 1020.66 1021.33 1021.76 1021.97 1022.23 1022.30 1022.16 1022.49 1022.82 1023.11 1023.42 1023.52 1023.65 1023.56 1023.71 1023.92 1024.26 1024.64 1024.84 1024.87
1017.08 1016.40 1015.55 1014.84 1014.14 1013.85 1012.19 1011.18 1010.36 1009.53 1009.14 1008.40 1008.13 1008.65 1009.42 1010.34 1011.45 1012.51 1012.97 1013.45 1014.04 1014.77 1015.03 1015.59 1016.03 1017.00 1017.99 1018.81 1019.77 1020.71 1021.25 1022.02 1022.51 1022.79 1022.93 1022.96 1023.05 1023.21 1023.51 1023.74 1023.90 1024.15 1024.32 1024.61 1024.73 1024.91 1025.22 1025.62 1025.67
1017.44 1016.99 1016.46 1016.23 1015.09 1014.28 1013.02 1011.08 1011.25 1010.80 1009.45 1008.49 1007.82 1007.92 1008.44 1009.74 1010.66 1011.48 1012.20 1012.74 1013.37 1013.91 1014.58 1015.09 1015.81 1016.57 1017.55 1018.41 1019.33 1020.08 1021.18 1022.10 1022.63 1023.09 1023.37 1023.52 1023.62 1023.70 1023.90 1024.15 1024.60 1024.83 1025.01 1025.24 1025.20 1024.97 1025.37 1026.13 1026.14
1017.03 1016.83 1016.69 1016.50 1015.92 1014.92 1013.76 1010.95 1010.44 1009.83 1009.43 1008.68 1007.92 1007.40 1007.60 1008.40 1009.64 1010.68 1011.50 1011.86 1012.56 1013.38 1013.83 1014.37 1015.28 1016.22 1017.18 1018.00 1019.43 1020.66 1021.69 1022.57 1022.98 1023.41 1023.84 1024.17 1024.19 1024.36 1024.58 1024.95 1025.22 1025.47 1025.56 1025.71 1025.68 1025.58 1025.15 1025.77 1026.33
1017.06 1016.64 1016.54 1016.39 1016.28 1014.50 1013.17 1008.83 1008.80 1008.00 1007.34 1006.89 1006.52 1006.41 1007.11 1007.94 1009.01 1009.84 1010.71 1011.70 1011.65 1012.62 1013.24 1013.89 1014.88 1015.67 1016.81 1017.76 1018.85 1019.39 1020.15 1021.27 1022.35 1023.25 1024.10 1024.53 1024.87 1025.18 1025.52 1025.70 1025.96 1026.04 1026.20 1026.34 1026.20 1026.15 1025.80 1025.53 1025.98
1016.81 1016.69 1016.44 1016.07 1015.53 1015.14 1013.41 1010.93 1006.56 1006.89 1005.55 1004.94 1004.80 1005.18 1005.99 1007.23 1008.40 1009.17 1009.93 1011.00 1011.19 1012.33 1013.04 1013.63 1014.64 1015.59 1016.61 1017.52 1018.43 1019.18 1020.13 1021.30 1022.47 1023.54 1024.40 1025.19 1025.56 1025.82 1026.09 1026.26 1026.56 1026.72 1026.90 1026.93 1026.51 1026.81 1026.63 1026.71 1026.76
1016.88 1016.62 1016.02 1015.56 1015.00 1013.50 1011.75 1010.97 1004.85 1005.58 1004.34 1003.93 1003.84 1004.33 1005.24 1006.44 1007.70 1008.69 1009.98 1011.03 1011.80 1012.86 1013.53 1014.21 1014.91 1015.89 1016.64 1017.56 1018.51 1019.26 1020.16 1021.51 1022.70 1023.88 1025.02 1025.83 1026.23 1026.51 1026.93 1026.81 1026.86 1027.10 1027.29 1027.49 1027.41 1027.65 1027.56 1027.51 1027.63
1017.04 1017.04 1015.99 1014.87 1014.04 1011.32 1009.88 1008.55 1005.17 1004.18 1003.40 1002.73 1003.03 1003.55 1004.53 1006.08 1007.20 1008.86 1010.10 1011.10 1012.20 1013.03 1013.88 1014.68 1015.40 1016.32 1017.07 1017.91 1018.80 1019.63 1020.73 1021.78 1022.56 1023.46 1024.71 1025.58 1026.49 1027.00 1027.54 1027.07 1027.25 1027.43 1027.73 1028.03 1028.08 1028.52 1028.51 1028.57 1028.53
1016.74 1016.97 1015.85 1013.89 1012.38 1010.01 1008.76 1007.22 1005.23 1004.69 1004.40 1003.99 1002.89 1002.31 1002.60 1004.57 1006.94 1008.39 1009.65 1011.06 1012.14 1012.83 1014.50 1015.05 1015.77 1016.70 1017.47 1018.39 1019.22 1019.97 1020.81 1022.08 1022.83 1023.83 1024.68 1025.23 1026.26 1027.37 1027.51 1027.70 1027.84 1027.95 1028.22 1028.49 1029.05 1028.93 1029.39 1029.59 1029.60
1016.82 1016.62 1015.49 1014.31 1012.43 1011.33 1008.24 1006.46 1005.36 1005.27 1004.87 1004.73 1003.67 1002.98 1003.00 1004.76 1006.18 1007.67 1009.67 1010.92 1011.62 1013.55 1014.70 1015.29 1016.18 1017.04 1017.95 1018.66 1019.35 1020.20 1021.00 1022.26 1022.51 1023.67 1025.18 1025.97 1026.95 1027.81 1027.75 1028.05 1028.52 1028.62 1028.70 1029.03 1029.43 1029.55 1030.09 1030.24 1030.34
1016.81 1016.72 1015.54 1014.11 1011.56 1009.46 1007.03 1006.57 1005.56 1006.36 1006.07 1005.76 1004.71 1003.39 1004.27 1005.33 1006.82 1008.16 1009.50 1010.44 1012.50 1013.63 1014.31 1015.43 1016.61 1017.13 1018.39 1019.33 1020.30 1020.62 1021.87 1022.61 1023.85 1023.87 1025.46 1025.99 1026.84 1027.65 1028.35 1028.75 1028.90 1029.05 1029.47 1029.62 1029.81 1030.25 1030.62 1030.68 1030.91
1016.62 1016.06 1015.35 1014.19 1011.63 1009.02 1007.60 1006.87 1008.25 1008.08 1007.57 1007.13 1006.22 1005.42 1005.82 1006.44 1007.73 1008.95 1009.82 1011.84 1013.24 1014.29 1013.78 1016.70 1017.38 1017.87 1018.96 1019.67 1020.40 1021.43 1023.16 1024.21 1024.71 1024.51 1025.62 1026.51 1027.32 1028.16 1028.74 1029.01 1029.36 1029.68 1029.89 1030.16 1030.36 1030.78 1030.90 1030.97 1031.24
1016.27 1015.56 1015.00 1013.57 1010.80 1009.82 1009.00 1007.98 1008.46 1008.91 1008.52 1007.70 1007.29 1007.50 1007.12 1007.75 1008.89 1009.94 1011.38 1012.68 1013.81 1014.77 1015.16 1016.99 1018.14 1018.87 1019.60 1020.29 1021.03 1023.73 1023.57 1024.55 1024.95 1025.93 1026.63 1027.34 1028.12 1028.83 1029.01 1029.27 1029.73 1030.23 1030.57 1030.71 1030.89 1031.21 1031.25 1031.26 1031.51
Thickness
5706 5709 5712 5712 5699 5706 5710 5718 5735 5729 5729 5736 5737 5730 5730 5729 5726 5716 5719 5719 5719 5715 5711 5706 5702 5701 5699 5698 5696 5695 5693 5692 5690 5689 5688 5688 5688 5687 5687 5685 5685 5685 5685 5684 5683 5683 5682 5681 5681
5703 5707 5707 5703 5692 5693 5710 5725 5722 5734 5737 5735 5732 5729 5727 5727 5724 5717 5713 5716 5717 5713 5710 5707 5703 5700 5698 5697 5696 5694 5693 5691 5690 5688 5687 5686 5685 5684 5683 5683 5682 5682 5682 5681 5680 5679 5678 5676 5676
5700 5703 5694 5693 5693 5692 5702 5720 5730 5724 5728 5730 5728 5729 5730 5726 5721 5720 5720 5718 5716 5712 5710 5707 5703 5701 5700 5697 5695 5692 5691 5691 5689 5687 5686 5685 5683 5682 5681 5679 5679 5678 5677 5676 5675 5674 5673 5672 5671
5695 5695 5691 5682 5686 5699 5707 5718 5724 5717 5719 5726 5732 5726 5723 5726 5723 5723 5720 5716 5715 5712 5709 5705 5704 5703 5701 5698 5695 5692 5691 5689 5687 5685 5683 5681 5680 5678 5676 5674 5673 5673 5672 5672 5671 5670 5670 5669 5668
5689 5686 5676 5675 5685 5696 5707 5713 5718 5717 5724 5725 5726 5724 5722 5720 5723 5718 5718 5715 5710 5710 5708 5705 5704 5704 5701 5697 5694 5691 5689 5686 5684 5682 5680 5678 5676 5674 5673 5671 5670 5669 5669 5669 5668 5668 5668 5667 5667
5676 5677 5664 5671 5685 5692 5702 5712 5713 5717 5721 5719 5717 5721 5718 5719 5717 5712 5714 5712 5706 5707 5705 5703 5701 5701 5699 5696 5693 5689 5687 5684 5681 5679 5678 5676 5674 5672 5671 5670 5668 5667 5666 5666 5666 5666 5665 5665 5664
5670 5667 5666 5670 5675 5681 5697 5709 5708 5711 5716 5713 5722 5717 5716 5710 5711 5712 5710 5710 5703 5703 5702 5700 5699 5696 5696 5693 5689 5687 5685 5682 5680 5678 5676 5674 5672 5670 5668 5667 5666 5666 5665 5664 5664 5663 5663 5662 5661
5669 5668 5662 5671 5674 5677 5695 5696 5704 5707 5710 5712 5719 5715 5716 5715 5706 5708 5708 5705 5700 5697 5697 5697 5696 5695 5693 5691 5688 5685 5682 5680 5678 5676 5674 5672 5670 5668 5666 5665 5664 5663 5663 5662 5662 5661 5661 5660 5660
5664 5657 5664 5673 5673 5686 5690 5690 5699 5700 5700 5703 5709 5713 5713 5718 5703 5703 5703 5701 5696 5695 5694 5692 5691 5691 5692 5689 5685 5682 5679 5677 5674 5672 5670 5668 5668 5666 5665 5663 5662 5661 5661 5660 5660 5660 5660 5659 5658
5657 5658 5671 5684 5687 5687 5687 5686 5694 5691 5693 5694 5699 5701 5704 5702 5698 5699 5702 5700 5693 5693 5693 5690 5687 5686 5684 5684 5681 5681 5679 5677 5675 5671 5668 5668 5666 5665 5664 5661 5660 5660 5660 5659 5657 5657 5657 5656 5655
5657 5654 5670 5672 5680 5682 5680 5681 5687 5689 5684 5705 5702 5695 5693 5690 5692 5693 5699 5697 5692 5690 5689 5689 5685 5681 5680 5678 5677 5677 5676 5674 5672 5670 5668 5666 5665 5663 5662 5661 5659 5658 5656 5657 5655 5653 5651 5649 5648
5643 5652 5659 5665 5670 5668 5671 5679 5677 5683 5698 5703 5706 5703 5684 5686 5691 5692 5694 5692 5690 5687 5685 5685 5683 5679 5677 5674 5672 5672 5670 5669 5668 5666 5664 5663 5663 5661 5660 5660 5658 5656 5653 5651 5650 5647 5643 5641 5638
5640 5644 5652 5657 5662 5663 5669 5668 5671 5678 5695 5700 5696 5693 5687 5684 5686 5688 5688 5688 5688 5684 5681 5679 5679 5677 5673 5671 5671 5669 5668 5665 5665 5663 5661 5661 5659 5658 5657 5655 5653 5650 5647 5645 5643 5643 5638 5634 5631
5634 5633 5639 5649 5655 5656 5652 5663 5666 5677 5689 5687 5685 5689 5689 5686 5682 5681 5684 5686 5683 5681 5678 5676 5675 5674 5670 5668 5666 5666 5663 5661 5659 5658 5658 5657 5657 5654 5653 5650 5647 5643 5640 5637 5636 5634 5631 5627 5624
5614 5617 5632 5640 5639 5645 5649 5655 5663 5672 5681 5677 5678 5683 5683 5687 5681 5681 5683 5683 5681 5679 5674 5672 5668 5666 5665 5664 5663 5661 5658 5655 5653 5652 5650 5650 5649 5648 5644 5642 5637 5634 5632 5630 5628 5625 5623 5620 5613
5599 5610 5612 5632 5634 5639 5632 5660 5669 5671 5672 5674 5678 5676 5676 5680 5682 5678 5677 5679 5674 5675 5672 5666 5664 5663 5660 5659 5658 5656 5653 5650 5647 5645 5644 5643 5642 5639 5638 5634 5630 5627 5625 5622 5618 5617 5614 5611 5606
5589 5598 5611 5616 5626 5629 5632 5644 5658 5663 5663 5668 5676 5673 5672 5671 5672 5674 5675 5673 5672 5668 5667 5664 5661 5658 5655 5654 5653 5650 5645 5642 5639 5637 5636 5633 5632 5630 5629 5625 5621 5619 5616 5614 5611 5607 5603 5600 5592
5577 5583 5590 5592 5607 5610 5624 5636 5644 5650 5656 5662 5668 5668 5667 5666 5670 5668 5668 5665 5665 5661 5662 5660 5660 5655 5651 5647 5642 5637 5635 5632 5630 5627 5626 5626 5624 5621 5618 5615 5611 5609 5607 5603 5599 5594 5588 5584 5580
5555 5558 5561 5571 5580 5577 5594 5605 5614 5635 5641 5652 5663 5666 5666 5663 5663 5660 5660 5664 5661 5657 5661 5660 5660 5654 5648 5642 5636 5631 5628 5623 5619 5617 5616 5615 5614 5612 5608 5604 5601 5597 5593 5588 5585 5581 5575 5568 5564
5536 5536 5538 5540 5557 5563 5575 5595 5593 5599 5622 5641 5652 5658 5664 5656 5656 5657 5656 5657 5658 5657 5656 5656 5654 5651 5644 5639 5633 5629 5622 5616 5613 5609 5607 5604 5602 5601 5598 5594 5589 5586 5581 5577 5573 5572 5566 5554 5550
5524 5521 5520 5517 5527 5544 5548 5573 5586 5599 5605 5622 5637 5653 5661 5658 5653 5652 5652 5655 5655 5653 5654 5655 5651 5646 5640 5637 5624 5616 5611 5605 5604 5601 5596 5593 5592 5588 5585 5580 5577 5572 5568 5564 5561 5557 5558 5547 5539
5500 5508 5507 5508 5505 5523 5544 5575 5590 5605 5607 5619 5636 5646 5649 5649 5650 5648 5648 5646 5653 5651 5651 5650 5646 5643 5637 5629 5622 5620 5620 5612 5601 5595 5587 5583 5579 5575 5569 5566 5561 5558 5553 5549 5546 5543 5542 5540 5533
5485 5492 5492 5496 5496 5487 5516 5533 5601 5595 5605 5622 5635 5642 5646 5644 5643 5644 5646 5645 5648 5645 5645 5643 5639 5636 5631 5625 5619 5615 5612 5601 5592 5584 5577 5569 5565 5562 5556 5552 5546 5542 5539 5533 5534 5528 5525 5520 5515
5476 5475 5481 5484 5488 5481 5528 5514 5590 5585 5607 5613 5627 5634 5636 5637 5639 5640 5636 5635 5635 5631 5631 5629 5630 5626 5623 5618 5611 5607 5602 5591 5582 5574 5564 5556 5550 5546 5541 5539 5535 5529 5525 5520 5517 5511 5507 5504 5498
5463 5454 5462 5468 5465 5495 5537 5530 5570 5596 5603 5615 5619 5625 5631 5628 5630 5622 5621 5624 5619 5620 5619 5618 5617 5614 5612 5606 5601 5596 5588 5581 5575 5567 5555 5545 5536 5531 5526 5528 5523 5517 5512 5506 5502 5493 5490 5485 5480
5454 5450 5472 5486 5506 5527 5532 5524 5556 5569 5575 5583 5609 5629 5640 5631 5622 5617 5617 5614 5612 5612 5605 5607 5605 5601 5599 5593 5589 5586 5581 5569 5564 5554 5546 5542 5533 5522 5517 5513 5507 5503 5498 5493 5484 5480 5472 5466 5462
5456 5458 5478 5473 5495 5492 5531 5547 5560 5560 5565 5569 5590 5611 5627 5621 5619 5619 5610 5608 5609 5599 5596 5597 5594 5591 5588 5584 5580 5576 5572 5561 5557 5548 5535 5527 5518 5508 5504 5498 5491 5488 5484 5477 5470 5465 5457 5452 5446
5456 5450 5475 5480 5507 5517 5545 5543 5568 5543 5550 5549 5562 5604 5607 5607 5607 5604 5603 5603 5592 5593 5593 5589 5586 5583 5578 5573 5568 5565 5555 5549 5535 5536 5523 5519 5509 5498 5488 5484 5479 5475 5468 5463 5457 5450 5443 5437 5430
5457 5468 5467 5470 5501 5528 5540 5556 5514 5519 5525 5533 5548 5580 5583 5588 5588 5588 5591 5581 5579 5578 5589 5572 5572 5573 5567 5562 5556 5548 5535 5528 5522 5523 5511 5502 5494 5484 5477 5473 5467 5460 5455 5449 5443 5435 5429 5424 5416
5453 5463 5467 5479 5515 5516 5520 5542 5511 5503 5515 5532 5533 5542 5560 5567 5569 5571 5570 5568 5566 5567 5571 5559 5556 5556 5554 5551 5543 5518 5522 5515 5511 5501 5494 5486 5478 5469 5466 5461 5455 5447 5440 5435 5429 5421 5415 5409 5401